Starlink 31904

operational
NORAD ID: 59657 Int'l Des: 2024-084 Owner: SPXS Country: US Constellation: starlink
LEOCIRCULAR

Starlink 31904について

説明を読み込み中...

リアルタイム位置

3D地球を読み込み中...

次回通過

高度履歴

Altitude vs Time

uPlot chart will show altitude changes over time

軌道要素

1 59657U 24084D 25305.99830248 .00001983 00000-0 81569-4 0 9992
2 59657 43.0040 42.9973 0001877 247.7661 112.2992 15.27585120 84841
Epoch: Nov 1, 2025 • Age: 19 hours

現在のステータス

高度 483.6 km
速度 7.63 km/s
衛星直下点 22.12°N, 97.88°E
打ち上げ日 May 6, 2024
運用期間 1.4 years
タイプ internet

技術仕様

分類 Payload
質量 730.00 kg
乾燥質量 700.00 kg
総質量 730.00 kg
長さ 0.30 m
直径 4.10 m
スパン 29.00 m
形状 Box + pan
製造者 SPXS
バスタイプ Starlink V2M
フェーズステータス In Orbit
所有者/国 SPXS/US

大規模コンステレーション

Loading constellations...